Location: Ohmer (historical)
(38.0096°N, 122.0227°W)
Time: 07:16:13
(UTC+00:00)

SL-16 R/B - Pass Details

Date: 14 February 2026
Orbit: 841 x 845 km, 71.0° (Epoch: 9 March)

Event Time Altitude Azimuth Distance (km) Brightness Sun altitude
Rises 13:49:32 0° 191° (SSW) 3,381 5.3 -14.3°
Reaches altitude 10° 13:51:59 10° 189° (S) 2,450 4.6 -13.8°
Maximum altitude 13:57:32 64° 109° (ESE) 933 2.7 -12.7°
Drops below altitude 10° 14:03:07 10° 29° (NNE) 2,468 4.9 -11.6°
Sets 14:05:35 0° 26° (NNE) 3,407 5.6 -11.1°
